User: anonymous   Login
Location: Unspecified
(0.0000°N, 0.0000°E)
Time: 00:16:21
(UTC+00:00)
Language:

P76-5 - Orbit

View from above orbital plane
View from above orbital plane
View from above satellite
View from above satellite

Ground track
Ground track

The orbit data is extracted from the following two-line orbital elements,

1  8860U 76047A   17114.95634650 +.00000021 +00000-0 +78352-4 0  9990
2  8860 099.6686 224.2096 0041751 225.2054 247.3767 13.67543722039751
Epoch (UTC): 24 April 2017 22:57:08
Eccentricity: 0.0041751
inclination: 99.6686°
perigee height: 977 km
apogee height: 1039 km
right ascension of ascending node: 224.2096°
argument of perigee: 225.2054°
revolutions per day: 13.67543722
mean anomaly at epoch: 247.3767°
orbit number at epoch: 3975

The dashed part of the orbit path shows where the satellite is in the earth's shadow,  

DLR